FW4023 Weather Reports


time (UTC)temp
C
wind
direction
speed
KPH
gust
KPH
rain 1hr
cm
rain 24hr
cm
rain mn
cm
humidity
%
barometer
mb
20260505230025 10 67 1.6 4.8 0.00 0.03 0.00 87 1028.9
20260505225004 10 3 1.6 6.4 0.00 0.03 0.00 87 1028.9
20260505224004 10 93 1.6 8.0 0.00 0.03 0.00 86 1028.8
20260505223025 10 61 1.6 6.4 0.00 0.03 0.00 86 1028.7
20260505222004 10 82 1.6 11.3 0.00 0.03 0.00 86 1028.6
20260505221025 10 45 1.6 6.4 0.00 0.03 0.00 86 1028.4
20260505220004 10 50 1.6 9.7 0.00 0.03 0.00 85 1028.3
20260505215004 10 352 1.6 9.7 0.00 0.03 0.00 85 1028.3
20260505214004 10 116 1.6 12.9 0.00 0.03 0.00 85 1028.2
20260505213004 10 272 1.6 6.4 0.00 0.03 0.00 85 1028.2
20260505212004 10 88 1.6 4.8 0.00 0.03 0.00 85 1028.2
20260505211004 10 70 0.0 4.8 0.00 0.03 0.00 85 1028.2
20260505210004 10 33 1.6 4.8 0.00 0.03 0.00 84 1028.1
20260505205003 10 41 1.6 9.7 0.00 0.03 0.00 84 1028.0
20260505204003 10 265 1.6 4.8 0.00 0.03 0.00 84 1027.9
20260505203003 10 246 1.6 9.7 0.00 0.03 0.00 84 1027.9
20260505202004 10 344 1.6 9.7 0.00 0.03 0.00 83 1027.8
20260505201003 10 332 1.6 3.2 0.00 0.03 0.00 83 1027.8
20260505200004 11 3 1.6 9.7 0.00 0.03 0.00 82 1027.8
20260505195003 11 323 1.6 11.3 0.00 0.03 0.00 82 1027.7
20260505194003 11 273 1.6 6.4 0.00 0.03 0.00 82 1027.8
20260505193003 11 5 1.6 6.4 0.00 0.03 0.00 81 1027.8
20260505192004 11 174 1.6 9.7 0.00 0.03 0.00 81 1027.7
20260505191004 11 343 1.6 6.4 0.00 0.03 0.00 80 1027.7
20260505190004 11 96 1.6 4.8 0.00 0.03 0.00 80 1027.6
20260505185004 11 124 1.6 6.4 0.00 0.03 0.00 79 1027.5
20260505184004 11 67 1.6 11.3 0.00 0.03 0.00 79 1027.5
20260505183004 11 81 1.6 6.4 0.00 0.03 0.00 78 1027.5
20260505182003 11 52 1.6 4.8 0.00 0.03 0.00 78 1027.5
20260505181024 11 26 1.6 6.4 0.00 0.03 0.00 78 1027.4
20260505180004 11 90 1.6 6.4 0.00 0.03 0.00 77 1027.4
20260505175003 11 135 1.6 12.9 0.00 0.03 0.00 77 1027.3
20260505174003 11 318 1.6 6.4 0.00 0.03 0.00 77 1027.3
20260505173004 11 324 1.6 8.0 0.00 0.03 0.00 77 1027.3
20260505172025 11 340 1.6 8.0 0.00 0.03 0.00 77 1027.3
20260505171003 12 1 1.6 6.4 0.00 0.03 0.00 77 1027.2
20260505170003 12 30 1.6 4.8 0.00 0.03 0.00 77 1027.1
20260505165003 12 28 1.6 4.8 0.00 0.03 0.00 77 1027.2
20260505164004 12 321 3.2 8.0 0.00 0.03 0.00 77 1027.0
20260505163004 12 349 1.6 8.0 0.00 0.03 0.00 77 1027.0
20260505162003 12 277 1.6 4.8 0.00 0.03 0.00 77 1027.0
20260505161004 12 262 0.0 4.8 0.00 0.03 0.00 77 1026.9
20260505153004 12 45 3.2 6.4 0.00 0.03 0.03 77 1026.9
20260505152004 12 38 1.6 8.0 0.00 0.03 0.03 77 1026.9
20260505151004 12 22 1.6 6.4 0.00 0.03 0.03 77 1026.8
20260505125004 12 22 1.6 4.8 0.00 0.03 0.03 83 1026.5
20260505124004 12 22 1.6 3.2 0.00 0.03 0.03 84 1026.5
20260505123004 12 22 1.6 3.2 0.00 0.03 0.03 84 1026.5
20260505122004 12 22 0.0 3.2 0.00 0.03 0.03 84 1026.5
20260505121004 12 22 3.2 4.8 0.00 0.03 0.03 83 1026.5
20260505120004 12 22 3.2 4.8 0.00 0.03 0.03 82 1026.4
20260505115004 12 21 3.2 6.4 0.00 0.03 0.03 81 1026.3
20260505114025 13 20 3.2 6.4 0.00 0.03 0.03 81 1026.2
20260505113025 13 21 3.2 6.4 0.00 0.03 0.03 79 1026.2
20260505112003 13 21 3.2 6.4 0.00 0.03 0.03 78 1026.2
20260505111003 14 21 1.6 6.4 0.00 0.03 0.03 77 1026.1
20260505102004 16 20 1.6 4.8 0.00 0.03 0.03 71 1025.6
20260505101003 16 21 3.2 6.4 0.00 0.03 0.03 69 1025.5
20260505100004 17 165 3.2 9.7 0.00 0.03 0.03 68 1025.3
20260505095004 17 170 1.6 3.2 0.00 0.03 0.03 67 1025.2
20260505094004 18 170 0.0 3.2 0.00 0.03 0.03 65 1025.2
20260505093025 18 170 1.6 3.2 0.00 0.03 0.03 64 1025.1
20260505092025 19 170 1.6 3.2 0.00 0.03 0.03 60 1025.1
20260505091003 20 170 1.6 3.2 0.00 0.03 0.03 58 1025.0
20260505090004 21 170 0.0 6.4 0.00 0.03 0.03 56 1024.9
20260505085025 21 170 0.0 3.2 0.00 0.03 0.03 54 1025.0
20260505084004 21 172 1.6 9.7 0.00 0.03 0.03 53 1024.9
20260505083004 21 151 1.6 8.0 0.00 0.03 0.03 53 1024.9
20260505082003 21 153 1.6 6.4 0.00 0.03 0.03 52 1024.9
20260505081003 21 191 1.6 8.0 0.00 0.03 0.03 51 1024.8
20260505080024 21 166 3.2 8.0 0.00 0.03 0.03 50 1024.8
20260505075003 21 207 1.6 6.4 0.00 0.03 0.03 50 1024.8
20260505074003 21 176 4.8 12.9 0.00 0.03 0.03 50 1024.8
20260505073003 22 124 3.2 12.9 0.00 0.03 0.03 50 1024.7
20260505072004 22 56 3.2 8.0 0.00 0.03 0.03 49 1024.8
20260505071004 22 106 1.6 9.7 0.00 0.03 0.03 48 1024.8
20260505070004 22 129 3.2 11.3 0.00 0.03 0.03 47 1024.8
20260505065004 22 69 1.6 11.3 0.00 0.03 0.03 49 1024.8
20260505064004 22 60 3.2 6.4 0.00 0.03 0.03 50 1024.8
20260505063003 22 43 3.2 9.7 0.00 0.03 0.03 49 1024.7
20260505062003 22 62 3.2 8.0 0.00 0.03 0.03 51 1024.7
20260505061004 22 67 1.6 14.5 0.00 0.03 0.03 51 1024.8
20260505060004 22 45 3.2 11.3 0.00 0.03 0.03 50 1024.8
20260505055004 22 50 3.2 12.9 0.00 0.03 0.03 51 1024.9
20260505054004 21 49 3.2 8.0 0.00 0.03 0.03 51 1024.9
20260505053004 21 49 3.2 6.4 0.00 0.03 0.03 52 1025.0
20260505052004 21 80 1.6 6.4 0.00 0.03 0.03 54 1025.1
20260505051004 21 89 1.6 6.4 0.00 0.03 0.03 54 1025.2
20260505041004 19 86 3.2 6.4 0.00 0.03 0.03 62 1026.1
20260505040004 19 127 3.2 12.9 0.00 0.03 0.03 62 1026.3
20260505035004 18 180 3.2 8.0 0.00 0.03 0.03 63 1026.5
20260505034004 18 334 3.2 8.0 0.00 0.03 0.03 64 1026.5
20260505033004 18 95 4.8 12.9 0.00 0.03 0.03 64 1026.7
20260505032004 18 130 3.2 11.3 0.00 0.03 0.03 66 1026.8
20260505031025 18 144 3.2 8.0 0.00 0.03 0.03 67 1026.8
20260505030004 18 103 1.6 9.7 0.00 0.03 0.03 67 1026.8
20260505025004 17 92 3.2 11.3 0.00 0.03 0.03 69 1026.8
20260505024025 17 97 1.6 14.5 0.00 0.03 0.03 70 1026.9
20260505023004 16 137 1.6 8.0 0.00 0.03 0.03 72 1026.9
20260505022003 16 110 3.2 9.7 0.00 0.03 0.03 75 1026.9
20260505021004 15 114 3.2 9.7 0.00 0.03 0.03 79 1026.9
20260505020004 14 109 1.6 8.0 0.00 0.03 0.03 82 1027.0
20260505015004 13 84 1.6 4.8 0.00 0.03 0.03 84 1027.0
20260505014024 13 138 3.2 6.4 0.00 0.03 0.03 86 1027.1
20260505013003 12 137 1.6 8.0 0.00 0.03 0.03 88 1027.1
20260505012003 12 81 1.6 4.8 0.00 0.03 0.03 88 1027.1
20260505011003 11 122 1.6 9.7 0.03 0.03 0.03 89 1027.2
20260505010005 11 90 1.6 12.9 0.03 0.03 0.03 90 1027.3
20260505005004 11 336 1.6 4.8 0.03 0.03 0.03 90 1027.3
20260505004003 10 162 1.6 9.7 0.03 0.03 0.03 90 1027.5
20260505003003 10 134 1.6 8.0 0.03 0.03 0.03 91 1027.3
20260505002025 10 86 1.6 9.7 0.03 0.03 0.03 91 1027.2
20260505001004 9 112 1.6 6.4 0.00 0.00 0.00 91 1027.0
20260505000004 9 66 1.6 6.4 0.00 0.00 0.00 90 1026.8
20260504235003 8 11 3.2 11.3 0.00 0.00 0.00 90 1026.7
20260504234024 8 39 1.6 8.0 0.00 0.00 0.00 90 1026.6
20260504233003 8 25 1.6 4.8 0.00 0.00 0.00 90 1026.5
20260504232003 8 5 1.6 4.8 0.00 0.00 0.00 90 1026.4
20260504231024 8 5 1.6 4.8 0.00 0.00 0.00 90 1026.3